Location: Henham
(51.9333°N, 0.2500°E)
Time: 23:27:13
(UTC+00:00)

ATLAS 3B R/B - Pass Details

Date: 23 October 2019
Orbit: 1029 x 1166 km, 63.8° (Epoch: 10 November)

Event Time Altitude Azimuth Distance (km) Brightness Sun altitude
Rises 20:31:02 0° 239° (WSW) 3,809 6.0 -34.1°
Reaches altitude 10° 20:33:43 10° 243° (WSW) 2,846 5.3 -34.5°
Enters shadow 20:39:47 58° 301° (WNW) 1,192 3.0 -35.3°
